Wind_Speed
28 28 28 28 28 27 26 26 27 29 30 31 31 32 32 33 33 34 35 36 37 39 39 40 42 42 41 42 43 42 42 43 43 43 43 42 42 41 41 40 40 40 39
27 27 27 27 27 27 27 27 27 27 28 29 31 32 33 32 33 34 35 36 37 39 40 40 41 42 42 43 43 42 42 43 43 43 44 43 43 43 43 41 41 41 40
27 27 27 27 27 27 27 27 27 28 29 29 30 32 33 34 34 34 35 36 37 38 39 40 42 42 43 43 43 42 42 42 42 42 43 44 44 43 42 42 41 40 40
26 27 27 28 27 27 27 28 28 29 30 30 30 30 31 32 33 33 34 35 36 37 39 40 41 42 42 43 43 43 43 43 44 44 45 45 44 44 43 43 42 41 41
25 26 27 27 27 28 28 27 28 29 29 29 29 30 31 31 32 33 33 33 34 35 37 38 40 41 42 44 44 43 44 45 45 45 44 45 45 46 46 45 44 44 44
25 26 26 27 27 27 27 27 28 28 29 29 29 30 30 30 31 31 32 33 33 34 35 36 37 39 41 43 43 44 45 45 46 46 46 46 46 46 46 46 46 45 44
26 26 26 26 27 27 27 28 28 28 29 29 29 29 29 30 31 31 32 32 32 34 36 37 37 38 40 41 42 43 44 45 46 47 47 48 48 48 48 47 47 46 46
26 27 26 26 27 27 28 27 27 27 27 28 29 29 29 30 30 31 32 32 32 34 36 36 38 38 39 41 42 42 45 46 47 47 48 49 48 48 48 49 49 48 47
27 27 27 26 26 26 27 27 27 27 27 28 29 30 29 29 29 30 31 32 33 33 35 36 38 38 40 40 41 43 44 45 46 47 49 50 50 49 48 48 49 49 48
27 27 27 27 27 26 27 27 28 28 28 28 29 30 30 29 29 30 31 31 32 33 35 36 37 38 39 39 41 42 43 46 46 47 48 49 49 50 49 49 49 49 49
28 28 28 28 28 27 27 28 28 28 28 29 30 30 31 30 30 30 30 31 32 33 34 36 37 37 38 39 41 42 44 45 46 46 48 48 48 49 49 49 48 49 50
29 29 28 28 28 28 28 28 28 28 29 30 30 31 31 31 31 31 31 31 32 33 34 36 37 38 38 39 40 42 43 45 45 46 48 48 48 48 49 49 48 48 49
30 30 29 29 29 29 29 29 29 29 30 30 30 30 30 30 31 31 32 32 33 33 35 36 37 37 38 38 39 40 42 44 44 45 46 47 47 47 48 48 48 48 49
30 30 30 30 30 30 30 30 30 30 30 30 30 30 30 30 31 31 33 34 34 34 34 35 35 36 37 38 38 39 41 42 43 44 45 46 46 46 47 47 48 49 50
31 31 31 31 31 31 31 32 31 31 31 30 30 30 30 30 30 31 32 34 34 33 33 34 34 35 36 36 37 39 39 40 41 42 44 45 45 45 46 47 48 49 50
31 31 31 30 31 31 32 32 32 31 31 31 30 30 30 30 30 31 31 31 31 33 33 33 34 34 34 34 35 37 38 38 39 39 41 42 44 44 46 46 47 48 49
32 31 31 31 31 31 31 32 32 31 31 31 31 30 30 29 29 29 30 30 30 31 32 32 32 32 32 33 34 34 35 37 38 38 39 40 42 43 44 46 46 47 47
32 32 32 32 31 31 31 31 31 30 30 31 30 30 29 29 29 28 29 30 30 30 31 30 30 31 31 32 34 34 35 36 38 38 39 40 41 42 44 45 45 46 47
32 32 32 32 32 31 31 30 30 30 29 29 29 29 29 29 29 29 28 28 29 30 29 29 30 30 30 31 32 33 35 35 36 37 38 40 41 42 43 44 45 45 46
32 32 32 31 31 30 30 30 30 29 29 29 28 28 28 28 28 29 29 28 28 28 29 29 29 29 30 31 32 33 34 34 36 38 39 40 41 42 43 43 44 45 45
31 31 31 30 30 30 30 30 30 29 28 28 28 28 27 27 27 27 28 28 28 29 29 29 29 30 31 32 33 34 34 34 35 37 39 40 41 42 43 43 43 44 45
31 31 31 30 30 31 31 31 31 30 29 28 28 28 27 26 27 27 27 27 27 28 29 29 29 30 31 32 33 34 35 34 35 36 37 37 38 40 41 42 43 44 45
33 32 31 31 30 30 30 31 31 30 29 29 29 29 28 28 28 28 28 28 28 28 28 28 28 29 30 31 33 34 34 35 35 36 37 38 38 39 40 41 42 43 43
32 32 32 31 31 31 31 31 30 30 30 29 29 29 28 28 29 28 28 29 29 29 30 30 31 31 32 32 33 33 34 34 35 35 35 36 37 38 39 41 41 41 41
32 32 31 31 31 31 31 31 31 30 29 29 28 28 29 29 30 30 29 29 30 30 30 31 32 32 33 33 34 34 34 34 35 35 35 36 37 38 39 39 39 39 39
29 30 31 31 30 30 30 31 31 30 30 30 29 29 29 29 30 30 30 30 31 31 32 32 33 34 33 34 34 34 34 35 35 36 36 37 37 37 37 37 37 38 39
Wind_Direction
271 270 269 267 267 266 263 263 262 261 260 259 258 258 258 258 255 254 252 250 248 246 244 242 240 238 238 237 237 239 241 239 238 238 238 239 240 241 243 244 244 246 247
271 270 269 268 268 268 266 265 263 263 261 261 260 259 259 258 256 254 252 251 250 247 245 244 241 240 240 238 238 239 241 240 238 238 239 240 241 242 243 244 245 246 247
271 269 267 267 268 268 267 266 265 264 264 264 264 263 261 259 256 256 254 252 251 249 246 244 243 243 241 240 239 240 240 240 239 239 240 241 242 242 243 245 246 247 248
270 268 267 267 267 267 268 268 266 265 265 266 267 265 262 260 258 256 254 253 252 250 246 245 245 243 242 241 240 240 241 242 241 241 242 243 244 243 243 244 246 247 248
269 268 267 267 267 268 268 269 269 267 265 266 266 264 262 260 258 256 255 254 252 250 246 246 246 245 244 243 242 242 242 243 243 242 243 245 246 246 245 245 246 248 249
269 267 267 267 268 268 269 270 270 268 266 266 266 265 263 261 259 257 256 255 252 249 248 248 248 247 245 245 244 242 243 244 244 243 244 245 246 246 246 246 247 249 249
269 267 268 268 269 270 269 270 271 269 266 266 267 266 265 264 260 259 258 257 254 252 249 248 247 247 247 246 245 243 244 244 244 243 244 245 246 246 246 247 248 250 250
270 269 268 268 269 271 271 270 271 269 266 265 265 268 267 265 261 261 260 258 257 255 252 251 249 248 247 247 246 244 244 245 244 245 245 245 246 247 247 247 249 250 250
270 269 269 269 270 270 270 270 270 268 266 266 267 268 268 267 264 262 260 259 257 256 255 253 252 250 248 248 248 246 246 246 246 246 247 247 247 248 248 248 250 251 251
271 270 269 269 269 269 270 270 269 268 266 266 267 268 267 266 265 263 260 258 257 256 254 253 252 251 249 249 249 248 247 248 248 247 247 248 249 249 249 251 252 253 254
271 269 268 268 269 269 269 270 269 269 267 267 268 268 267 265 264 264 261 259 257 256 255 254 253 252 251 250 250 249 248 248 248 249 249 248 249 250 251 252 253 254 255
270 269 268 269 270 269 270 271 270 270 269 269 269 269 267 267 265 264 263 261 259 258 257 255 254 254 252 251 251 250 250 249 250 251 250 249 250 250 252 252 252 253 255
269 268 268 269 269 269 270 271 270 270 270 270 270 269 268 268 265 263 263 262 260 259 259 258 256 255 253 251 251 252 251 250 251 252 252 251 251 251 251 251 252 254 256
268 268 267 268 268 268 269 270 269 269 269 270 269 269 269 269 267 264 263 262 261 260 259 258 256 255 254 253 252 252 253 252 253 253 252 252 251 251 251 252 253 255 256
267 267 266 266 267 267 268 269 269 269 269 269 269 269 269 269 266 265 264 263 261 259 258 256 255 255 255 255 254 253 254 254 254 254 252 252 252 252 252 253 255 256 257
266 266 265 266 267 267 266 267 268 269 269 270 270 270 271 269 268 266 266 263 261 259 259 258 257 255 256 257 256 255 254 254 254 254 252 251 252 253 253 254 256 257 259
264 265 265 266 267 267 267 267 269 269 269 269 270 271 271 270 268 266 264 262 260 259 259 259 258 256 256 256 256 256 255 255 255 254 253 253 253 253 254 254 256 257 259
264 265 265 266 268 268 268 268 269 270 270 269 268 269 270 270 268 265 262 261 259 259 260 260 259 257 256 256 255 255 256 257 257 256 255 255 255 256 256 256 257 259 261
262 263 264 265 267 268 268 269 269 270 271 270 269 269 268 269 266 263 261 261 260 260 260 260 259 258 256 255 256 256 256 257 257 256 257 257 257 257 258 259 260 261 263
261 262 263 264 265 267 268 268 268 270 271 272 272 270 270 269 265 262 261 262 262 261 261 260 260 258 256 255 256 258 258 259 258 258 258 260 260 260 261 261 262 263 265
259 261 263 264 265 266 267 267 268 269 271 273 273 272 270 268 264 263 263 263 263 263 262 261 260 259 259 258 259 260 261 262 261 261 260 261 262 263 262 263 263 265 267
257 259 261 263 265 265 266 266 267 268 269 271 272 271 270 266 263 263 264 264 263 263 264 262 262 262 261 261 261 262 262 263 264 264 264 264 265 264 263 264 265 266 268
256 257 259 260 262 264 263 264 266 266 268 270 269 269 268 267 264 263 263 263 264 265 265 263 264 265 264 264 265 265 264 265 266 266 266 266 265 265 265 266 268 269 270
257 257 258 259 261 262 262 263 263 264 266 267 267 266 266 265 263 262 263 264 265 265 265 265 266 266 266 266 267 267 267 267 268 269 268 267 267 268 269 270 269 270 271
257 258 258 259 260 260 261 262 262 263 265 265 264 264 264 263 263 263 263 264 265 265 265 265 265 266 267 267 268 268 268 268 270 270 269 269 270 270 272 271 270 270 271
258 258 258 258 258 260 261 262 262 263 264 264 265 264 263 263 263 263 264 265 267 267 267 266 266 267 268 268 268 269 270 271 271 270 269 270 270 271 271 270 269 271 272
Height
5710 5709 5709 5708 5708 5708 5707 5708 5708 5708 5708 5709 5709 5710 5711 5712 5712 5713 5715 5716 5718 5721 5724 5727 5731 5734 5738 5742 5745 5748 5752 5755 5758 5762 5765 5768 5771 5774 5777 5780 5782 5784 5787
5703 5703 5702 5702 5701 5701 5700 5701 5701 5701 5701 5701 5702 5703 5703 5704 5704 5705 5706 5708 5710 5712 5715 5718 5722 5725 5728 5732 5736 5739 5742 5745 5749 5753 5756 5759 5763 5765 5768 5771 5774 5776 5778
5697 5696 5695 5695 5694 5694 5694 5693 5694 5694 5694 5694 5694 5694 5695 5695 5696 5697 5698 5700 5701 5703 5706 5709 5712 5715 5718 5722 5726 5730 5733 5736 5739 5743 5747 5750 5754 5757 5760 5762 5764 5767 5769
5689 5689 5688 5688 5688 5687 5687 5686 5686 5686 5686 5686 5686 5686 5687 5687 5688 5689 5690 5691 5692 5694 5697 5700 5703 5706 5709 5712 5716 5720 5723 5726 5729 5733 5737 5741 5744 5747 5751 5753 5755 5757 5760
5682 5681 5681 5681 5680 5680 5680 5679 5679 5679 5679 5679 5679 5679 5679 5679 5679 5680 5681 5682 5684 5685 5688 5691 5693 5696 5699 5702 5706 5709 5713 5717 5720 5723 5727 5730 5733 5736 5740 5743 5746 5748 5750
5675 5674 5674 5673 5673 5673 5673 5672 5672 5671 5671 5671 5671 5670 5670 5670 5671 5671 5672 5673 5675 5677 5679 5682 5684 5686 5689 5692 5695 5699 5702 5706 5710 5713 5716 5720 5723 5726 5729 5732 5736 5738 5741
5667 5667 5666 5666 5666 5665 5665 5664 5664 5663 5663 5663 5663 5662 5662 5662 5662 5663 5664 5665 5666 5668 5670 5673 5675 5677 5679 5682 5685 5688 5692 5695 5699 5702 5705 5709 5712 5715 5718 5721 5725 5727 5730
5659 5659 5659 5658 5658 5658 5657 5657 5656 5655 5654 5655 5655 5654 5653 5653 5654 5654 5655 5656 5658 5659 5661 5663 5665 5667 5670 5672 5675 5678 5681 5684 5688 5691 5694 5697 5701 5703 5707 5710 5713 5716 5719
5651 5651 5651 5650 5650 5650 5649 5649 5648 5648 5647 5647 5646 5646 5645 5645 5645 5645 5646 5647 5648 5650 5651 5653 5655 5658 5660 5662 5665 5668 5671 5673 5677 5680 5683 5686 5689 5692 5695 5698 5701 5704 5707
5643 5643 5642 5642 5642 5642 5642 5641 5641 5640 5640 5639 5639 5638 5638 5637 5637 5637 5638 5639 5639 5641 5642 5644 5646 5648 5650 5652 5654 5657 5659 5662 5665 5668 5671 5674 5678 5681 5684 5686 5689 5692 5694
5635 5634 5634 5635 5635 5634 5634 5633 5633 5632 5632 5631 5631 5630 5630 5629 5629 5629 5629 5630 5630 5632 5633 5635 5637 5638 5640 5642 5644 5647 5649 5652 5654 5656 5659 5663 5666 5669 5672 5674 5677 5679 5682
5626 5626 5626 5626 5626 5626 5626 5625 5625 5624 5624 5623 5623 5622 5621 5621 5620 5620 5620 5621 5622 5623 5624 5625 5627 5628 5630 5632 5634 5637 5639 5641 5644 5646 5648 5651 5654 5657 5660 5662 5665 5667 5669
5618 5617 5617 5618 5617 5617 5617 5617 5616 5616 5616 5615 5614 5614 5613 5612 5612 5612 5612 5612 5613 5613 5614 5615 5616 5618 5620 5622 5624 5626 5628 5631 5633 5635 5637 5640 5642 5645 5648 5650 5653 5655 5657
5609 5608 5608 5609 5609 5609 5608 5608 5608 5608 5607 5606 5606 5605 5605 5604 5603 5603 5603 5603 5603 5604 5604 5605 5606 5608 5609 5611 5613 5615 5618 5620 5622 5624 5626 5628 5631 5634 5636 5638 5640 5642 5644
5599 5599 5599 5599 5600 5600 5600 5599 5599 5599 5598 5598 5597 5597 5596 5596 5595 5595 5594 5594 5594 5594 5595 5596 5597 5598 5599 5601 5603 5605 5607 5609 5611 5613 5615 5617 5619 5622 5624 5626 5628 5630 5632
5590 5590 5590 5590 5590 5590 5590 5590 5590 5590 5589 5589 5588 5588 5587 5587 5586 5586 5585 5585 5585 5585 5586 5587 5588 5589 5590 5592 5593 5595 5597 5599 5600 5602 5604 5606 5608 5610 5612 5614 5616 5618 5619
5580 5580 5581 5581 5581 5581 5581 5581 5581 5580 5580 5580 5580 5579 5579 5578 5577 5577 5577 5577 5577 5577 5577 5578 5579 5580 5581 5582 5584 5585 5587 5589 5591 5592 5594 5595 5597 5599 5601 5602 5604 5605 5606
5570 5571 5571 5571 5571 5571 5571 5572 5571 5571 5571 5571 5571 5570 5570 5569 5569 5569 5568 5569 5569 5569 5569 5570 5571 5572 5572 5573 5575 5576 5578 5579 5581 5582 5583 5585 5586 5588 5589 5591 5592 5593 5594
5560 5561 5561 5562 5562 5562 5562 5562 5563 5562 5562 5562 5562 5561 5561 5560 5560 5560 5560 5560 5561 5561 5561 5561 5562 5563 5563 5564 5565 5567 5568 5569 5571 5572 5573 5574 5576 5577 5578 5579 5581 5582 5582
5550 5551 5551 5552 5552 5553 5553 5554 5554 5554 5554 5554 5553 5552 5552 5551 5551 5552 5552 5552 5552 5552 5552 5553 5553 5554 5555 5556 5557 5558 5559 5560 5561 5562 5562 5564 5565 5566 5566 5567 5568 5569 5570
5541 5541 5542 5542 5543 5543 5544 5544 5545 5545 5545 5545 5544 5544 5543 5543 5543 5543 5543 5544 5544 5544 5544 5545 5545 5546 5547 5547 5548 5548 5549 5550 5551 5551 5552 5553 5553 5554 5554 5555 5556 5556 5557
5531 5531 5532 5533 5534 5534 5535 5535 5536 5536 5536 5536 5536 5536 5535 5535 5535 5535 5536 5536 5536 5536 5536 5537 5537 5537 5538 5538 5538 5539 5540 5540 5541 5541 5542 5542 5542 5543 5543 5543 5543 5544 5544
5520 5522 5523 5524 5524 5525 5526 5526 5527 5527 5527 5527 5527 5527 5527 5527 5527 5527 5528 5528 5528 5528 5528 5528 5529 5529 5529 5529 5529 5529 5530 5530 5530 5531 5531 5531 5531 5531 5531 5531 5531 5531 5531
5510 5511 5513 5514 5515 5515 5516 5517 5517 5518 5518 5518 5518 5519 5519 5519 5519 5519 5520 5520 5520 5520 5520 5520 5520 5520 5520 5520 5520 5520 5520 5520 5520 5520 5520 5520 5520 5520 5519 5519 5519 5518 5518
5500 5501 5503 5504 5505 5506 5507 5507 5508 5509 5509 5509 5509 5510 5510 5510 5510 5511 5511 5511 5511 5511 5511 5511 5511 5511 5511 5511 5510 5510 5510 5510 5510 5510 5510 5509 5509 5508 5508 5507 5507 5506 5506
5491 5492 5493 5494 5495 5496 5497 5498 5499 5499 5500 5500 5500 5501 5501 5501 5502 5502 5502 5502 5502 5502 5501 5501 5501 5501 5501 5501 5500 5500 5500 5500 5499 5499 5499 5498 5498 5497 5497 5496 5496 5495 5494